Regional Weather Roundup
Issued by NWS

Home | Current Version | Previous Version | Text Only | Print | Product List | Glossary On
Versions: 1 2 3 4 5 6 7 8 9 10 11 12 13 14 15 16 17 18 19 20 21 22 23 24 25 26 27 28 29 30 31 32 33 34 35 36 37 38 39 40 41 42 43 44 45 46 47 48 49 50
000
ASUS44 KJAN 180610
RWRMS

MISSISSIPPI HOURLY WEATHER ROUNDUP
NATIONAL WEATHER SERVICE JACKSON MS
1200 AM CST THU JAN 18 2018

NOTE: "FAIR: INDICATES FEW OR NO CLOUDS BELOW 12,000 FEET WITH NO
SIGNIFICANT WEATHER AND/OR OBSTRUCTIONS TO VISIBILITY.

MSZ001>002-007>008-010>013-018>021-025>028-034>036-180700-
NORTHWEST MISSISSIPPI

CITY           SKY/WX    TMP DP  RH WIND       PRES   REMARKS
BATESVILLE     FAIR      13   8  82 CALM      30.65F
CLARKSDALE     CLEAR     16  14  93 CALM      30.64F
CLEVELAND      FAIR      17  14  90 CALM      30.64F
GREENWOOD      FAIR      15  12  88 CALM      30.64F
6HR MIN TEMP:  13; 6HR MAX TEMP:  21;

GREENVILLE     FAIR      15  10  80 CALM      30.64F
6HR MIN TEMP:  13; 6HR MAX TEMP:  22;

OXFORD         FAIR      10   9  92 SW5       30.64R WCI   2
TUNICA           N/A     12  10  92 CALM      30.65S
WINONA         FAIR      15  11  85 N5        30.61F WCI   7
$$

MSZ003>006-009-014>017-022>024-029>033-037>039-180700-
NORTHEAST MISSISSIPPI

CITY           SKY/WX    TMP DP  RH WIND       PRES   REMARKS
ABERDEEN         N/A     14  14 100 N3        30.63F
COLUMBUS AFB   CLEAR     16  10  79 CALM      30.62F
GOLDN TRIANGLE FAIR      16  11  80 NW5       30.62S WCI   9
STARKVILLE     FAIR      14  12  92 CALM      30.63S
TUPELO         FAIR      15   8  73 CALM      30.61F
6HR MIN TEMP:  15; 6HR MAX TEMP:  24;

$$

MSZ040-058-180700-
CENTRAL MISSISSIPPI

CITY           SKY/WX    TMP DP  RH WIND       PRES   REMARKS
JACKSON INTL   FAIR      17  13  84 N5        30.61S WCI  10
6HR MIN TEMP:  17; 6HR MAX TEMP:  23;

JACKSON HAWKNS FAIR      17  13  84 CALM      30.62F
6HR MIN TEMP:  17; 6HR MAX TEMP:  23;

MADISON        FAIR      16  12  86 CALM      30.62S
MERIDIAN KEY   FAIR      19  12  74 N3        30.59F
6HR MIN TEMP:  18; 6HR MAX TEMP:  25;

MERIDIAN NAS   FAIR      17  11  77 N6        30.59F WCI   9
6HR MIN TEMP:  17; 6HR MAX TEMP:  26;

RAYMOND          N/A     16  14  93 CALM      30.63S
$$

MSZ059>079-180700-
SOUTH MISSISSIPPI

CITY           SKY/WX    TMP DP  RH WIND       PRES   REMARKS
HATTIESBURG    FAIR      20  14  77 N5        30.61F WCI  13
6HR MIN TEMP:  20; 6HR MAX TEMP:  29;

LAUREL         FAIR      19  11  73 CALM      30.61S
MCCOMB         FAIR      20  11  68 N8        30.58F WCI  10
6HR MIN TEMP:  20; 6HR MAX TEMP:  29;

NATCHEZ        FAIR      19  13  77 N5        30.62F WCI  12
6HR MIN TEMP:  19; 6HR MAX TEMP:  24;

PINE BELT      FAIR      18  13  80 NW5       30.61S WCI  11
6HR MIN TEMP:  18; 6HR MAX TEMP:  25;

$$

MSZ080>082-180700-
COASTAL MISSISSIPPI

CITY           SKY/WX    TMP DP  RH WIND       PRES   REMARKS
BILOXI         FAIR      26  12  57 N10       30.57F WCI  15
6HR MIN TEMP:  26; 6HR MAX TEMP:  32;

PASCAGOULA     FAIR      25  11  55 N12       30.59F WCI  14
6HR MIN TEMP:  24; 6HR MAX TEMP:  31;

GULFPORT       FAIR      26  13  57 N8        30.58F WCI  18
6HR MIN TEMP:  25; 6HR MAX TEMP:  32;

$$

LAZ007>009-015>016-023>026-180700-
NORTHEAST LOUISIANA

CITY           SKY/WX    TMP DP  RH WIND       PRES   REMARKS
BASTROP        FAIR      14  14  98 CALM      30.64F
TALLULAH/VBURG FAIR      16  13  88 N6        30.64F WCI   7
6HR MIN TEMP:  14; 6HR MAX TEMP:  22;

VIDALIA        FAIR      21  15  78 MISG      30.63S
$$



USA.gov is the U.S. government's official web portal to all federal, state and local government web resources and services.